Time,TemperatureF,DewpointF,PressureIn,WindDirection,WindDirectionDegrees,WindSpeedMPH,WindSpeedGustMPH,Humidity,HourlyPrecipIn,Conditions,Clouds,dailyrainin,SoftwareType,DateUTC
2013-11-18 00:23:00,50.0,48.0,29.71,WSW,246,5.0,9.0,92,0.00,,,0.02,,2013-11-18 05:23:00,
2013-11-18 00:53:00,51.0,48.0,29.68,SW,232,5.0,16.0,91,0.00,,,0.02,,2013-11-18 05:53:00,
2013-11-18 01:22:00,51.0,48.0,29.64,South,187,6.0,12.0,90,0.00,,,0.02,,2013-11-18 06:22:00,
2013-11-18 01:42:00,51.0,48.0,29.63,SW,215,6.0,11.0,90,0.00,,,0.00,,2013-11-18 06:42:00,
2013-11-18 01:52:00,51.0,48.0,29.62,SSE,168,5.0,13.0,90,0.00,,,0.00,,2013-11-18 06:52:00,
2013-11-18 02:21:00,52.0,49.0,29.56,SE,140,2.0,19.0,91,0.00,,,0.00,,2013-11-18 07:21:00,
2013-11-18 02:42:00,53.0,50.0,29.55,WSW,250,5.0,13.0,91,0.00,,,0.00,,2013-11-18 07:42:00,
2013-11-18 02:52:00,53.0,50.0,29.54,South,190,8.0,15.0,91,0.00,,,0.00,,2013-11-18 07:52:00,
2013-11-18 03:22:00,54.0,51.0,29.50,SW,232,5.0,12.0,91,0.00,,,0.00,,2013-11-18 08:22:00,
2013-11-18 03:52:00,54.0,52.0,29.47,SSE,149,0.0,7.0,92,0.02,,,0.02,,2013-11-18 08:52:00,
2013-11-18 04:12:00,54.0,52.0,29.44,West,267,1.0,4.0,93,0.02,,,0.02,,2013-11-18 09:12:00,
2013-11-18 04:22:00,54.0,52.0,29.43,ENE,64,1.0,6.0,93,0.05,,,0.05,,2013-11-18 09:22:00,
2013-11-18 04:53:00,55.0,54.0,29.40,SSE,164,0.0,14.0,95,0.05,,,0.09,,2013-11-18 09:53:00,
2013-11-18 05:23:00,56.0,55.0,29.39,North,9,9.0,9.0,95,0.10,,,0.10,,2013-11-18 10:23:00,
2013-11-18 09:22:00,54.0,44.0,29.47,WSW,250,7.0,14.0,69,0.00,,,0.00,,2013-11-18 14:22:00,
2013-11-18 09:52:00,54.0,44.0,29.47,SW,232,6.0,14.0,68,0.00,,,0.00,,2013-11-18 14:52:00,
2013-11-18 10:22:00,52.0,45.0,29.48,WSW,244,4.0,16.0,76,0.00,,,0.00,,2013-11-18 15:22:00,
2013-11-18 10:43:00,52.0,45.0,29.49,SSW,202,4.0,15.0,76,0.00,,,0.00,,2013-11-18 15:43:00,
2013-11-18 10:53:00,52.0,43.0,29.48,WSW,249,10.0,16.0,70,0.00,,,0.00,,2013-11-18 15:53:00,
2013-11-18 11:23:00,52.0,41.0,29.48,WNW,282,5.0,21.0,66,0.00,,,0.00,,2013-11-18 16:23:00,
2013-11-18 11:43:00,52.0,41.0,29.48,WSW,250,3.0,13.0,67,0.00,,,0.00,,2013-11-18 16:43:00,
2013-11-18 11:52:00,52.0,40.0,29.47,South,190,9.0,21.0,63,0.00,,,0.00,,2013-11-18 16:52:00,
2013-11-18 12:22:00,53.0,40.0,29.47,WSW,251,7.0,19.0,61,0.00,,,0.00,,2013-11-18 17:22:00,
2013-11-18 12:43:00,53.0,39.0,29.48,SSW,196,10.0,19.0,60,0.00,,,0.00,,2013-11-18 17:43:00,
2013-11-18 12:52:00,54.0,40.0,29.48,West,275,9.0,14.0,60,0.00,,,0.00,,2013-11-18 17:52:00,
2013-11-18 13:23:00,54.0,39.0,29.49,WNW,292,8.0,16.0,57,0.00,,,0.00,,2013-11-18 18:23:00,
2013-11-18 13:52:00,55.0,38.0,29.49,SSW,211,5.0,13.0,52,0.00,,,0.00,,2013-11-18 18:52:00,
2013-11-18 14:22:00,55.0,37.0,29.50,SSW,209,6.0,13.0,51,0.00,,,0.00,,2013-11-18 19:22:00,
2013-11-18 14:42:00,54.0,39.0,29.51,SW,234,4.0,14.0,56,0.00,,,0.00,,2013-11-18 19:42:00,
2013-11-18 15:22:00,53.0,39.0,29.52,WNW,300,2.0,8.0,59,0.00,,,0.00,,2013-11-18 20:22:00,
2013-11-18 15:42:00,52.0,35.0,29.52,SW,231,8.0,16.0,53,0.00,,,0.00,,2013-11-18 20:42:00,
2013-11-18 15:52:00,52.0,33.0,29.53,South,173,8.0,26.0,49,0.00,,,0.00,,2013-11-18 20:52:00,
2013-11-18 16:22:00,51.0,33.0,29.53,SE,142,2.0,3.0,49,0.00,,,0.00,,2013-11-18 21:22:00,
2013-11-18 16:54:00,50.0,34.0,29.54,WNW,294,2.0,11.0,53,0.00,,,0.00,,2013-11-18 21:54:00,
2013-11-18 17:23:00,50.0,32.0,29.55,WSW,252,6.0,22.0,50,0.00,,,0.00,,2013-11-18 22:23:00,
2013-11-18 17:53:00,50.0,36.0,29.57,North,355,1.0,7.0,58,0.00,,,0.00,,2013-11-18 22:53:00,
2013-11-18 18:22:00,48.0,35.0,29.58,South,178,7.0,13.0,60,0.00,,,0.00,,2013-11-18 23:22:00,
2013-11-18 18:42:00,48.0,34.0,29.58,NW,320,6.0,11.0,59,0.00,,,0.00,,2013-11-18 23:42:00,
2013-11-18 18:52:00,47.0,33.0,29.59,SSW,205,4.0,10.0,59,0.00,,,0.00,,2013-11-18 23:52:00,
2013-11-18 19:22:00,46.0,33.0,29.59,WSW,244,9.0,11.0,61,0.00,,,0.00,,2013-11-19 00:22:00,
2013-11-18 19:42:00,46.0,34.0,29.59,SSW,200,5.0,10.0,62,0.00,,,0.00,,2013-11-19 00:42:00,
2013-11-18 19:52:00,45.0,33.0,29.60,SSW,201,8.0,18.0,63,0.00,,,0.00,,2013-11-19 00:52:00,
2013-11-18 20:21:00,45.0,34.0,29.60,West,278,8.0,14.0,64,0.00,,,0.00,,2013-11-19 01:21:00,
2013-11-18 20:42:00,45.0,34.0,29.60,WNW,296,2.0,12.0,65,0.00,,,0.00,,2013-11-19 01:42:00,
2013-11-18 20:52:00,45.0,34.0,29.61,SSE,153,7.0,14.0,65,0.00,,,0.00,,2013-11-19 01:52:00,
2013-11-18 21:22:00,44.0,33.0,29.61,WSW,252,5.0,11.0,65,0.00,,,0.00,,2013-11-19 02:22:00,
2013-11-18 21:42:00,44.0,33.0,29.61,SW,234,4.0,10.0,65,0.00,,,0.00,,2013-11-19 02:42:00,
2013-11-18 21:52:00,43.0,32.0,29.60,SW,219,2.0,7.0,64,0.00,,,0.00,,2013-11-19 02:52:00,
2013-11-18 22:22:00,43.0,32.0,29.60,WSW,258,1.0,6.0,64,0.00,,,0.00,,2013-11-19 03:22:00,
2013-11-18 22:54:00,43.0,31.0,29.60,WNW,287,6.0,15.0,63,0.00,,,0.00,,2013-11-19 03:54:00,
2013-11-18 23:13:00,43.0,32.0,29.61,North,360,5.0,14.0,64,0.00,,,0.00,,2013-11-19 04:13:00,
2013-11-18 23:24:00,43.0,32.0,29.62,NNW,327,5.0,10.0,66,0.00,,,0.00,,2013-11-19 04:24:00,
2013-11-18 23:42:00,40.0,31.0,29.63,NE,34,6.0,13.0,71,0.00,,,0.00,,2013-11-19 04:42:00,
2013-11-18 23:52:00,39.0,30.0,29.63,WNW,302,4.0,11.0,71,0.00,,,0.00,,2013-11-19 04:52:00,